Location: ??
(34.9170°N, 135.5016°E)
Time: 23:25:41
(UTC+00:00)

RS-15 - Pass Details

Date: 29 April 2021
Orbit: 1888 x 2157 km, 64.8° (Epoch: 12 May)

Event Time Altitude Azimuth Distance (km) Brightness Sun altitude
Rises 18:31:51 0° 324° (NW) 5,590 10.4 -18.6°
Reaches altitude 10° 18:35:28 10° 318° (NW) 4,613 9.9 -18.0°
Maximum altitude 18:46:23 42° 253° (WSW) 2,836 8.4 -16.1°
Drops below altitude 10° 18:57:28 10° 188° (S) 4,656 9.7 -14.2°
Sets 19:01:12 0° 181° (S) 5,646 10.2 -13.5°
